Location: Rounton
(54.4000°N, 1.3500°W)
Time: 14:06:24
(UTC+00:00)

Transit 2A - Pass Details

Date: 09 December 2021
Orbit: 591 x 967 km, 66.7° (Epoch: 17 January)

Event Time Altitude Azimuth Distance (km) Brightness Sun altitude
Rises 06:09:07 0° 316° (NW) 3,643 - -16.8°
Reaches altitude 10° 06:11:44 10° 320° (NW) 2,711 - -16.4°
Exits shadow 06:13:04 17° 323° (NW) 2,247 7.9 -16.2°
Maximum altitude 06:18:05 62° 41° (NE) 1,085 6.8 -15.5°
Drops below altitude 10° 06:24:18 10° 121° (ESE) 2,649 10.1 -14.7°
Sets 06:26:49 0° 125° (SE) 3,555 11.0 -14.3°
